| time (UTC) | temp F | wind direction | speed MPH | gust MPH | rain 1hr in | rain 24hr in | rain mn in | humidity % | barometer mb |
| 20260509125803 | 73 | 22 | 1.0 | 3.0 | 0.00 | 0.00 | 0.00 | 52 | 1015.5 |
| 20260509125307 | 74 | 74 | 1.0 | 3.0 | 0.00 | 0.00 | 0.00 | 53 | 1015.5 |
| 20260509124804 | 76 | 66 | 1.0 | 3.0 | 0.00 | 0.00 | 0.00 | 53 | 1015.5 |
| 20260509124303 | 77 | 90 | 1.0 | 3.0 | 0.00 | 0.00 | 0.00 | 56 | 1015.8 |
| 20260509123804 | 77 | 46 | 2.0 | 5.0 | 0.00 | 0.00 | 0.00 | 51 | 1015.8 |
| 20260509123303 | 77 | 81 | 2.0 | 5.0 | 0.00 | 0.00 | 0.00 | 52 | 1015.8 |
| 20260509122804 | 77 | 35 | 2.0 | 5.0 | 0.00 | 0.00 | 0.00 | 50 | 1015.8 |
| 20260509122306 | 77 | 123 | 1.0 | 3.0 | 0.00 | 0.00 | 0.00 | 48 | 1015.8 |
| 20260509121804 | 77 | 102 | 2.0 | 5.0 | 0.00 | 0.00 | 0.00 | 51 | 1015.9 |
| 20260509121303 | 77 | 290 | 1.0 | 5.0 | 0.00 | 0.00 | 0.00 | 52 | 1016.2 |
| 20260509120804 | 77 | 177 | 2.0 | 5.0 | 0.00 | 0.00 | 0.00 | 53 | 1016.2 |
| 20260509115803 | 75 | 146 | 1.0 | 3.0 | 0.00 | 0.00 | 0.00 | 49 | 1016.2 |
| 20260509115306 | 75 | 94 | 1.0 | 3.0 | 0.00 | 0.00 | 0.00 | 54 | 1016.2 |
| 20260509114804 | 75 | 160 | 2.0 | 5.0 | 0.00 | 0.00 | 0.00 | 48 | 1016.2 |
| 20260509114304 | 75 | 105 | 1.0 | 3.0 | 0.00 | 0.00 | 0.00 | 49 | 1016.3 |
| 20260509113304 | 76 | 281 | 1.0 | 2.0 | 0.00 | 0.00 | 0.00 | 51 | 1016.9 |
| 20260509112803 | 75 | 290 | 1.0 | 3.0 | 0.00 | 0.00 | 0.00 | 52 | 1016.9 |
| 20260509111803 | 75 | 188 | 1.0 | 3.0 | 0.00 | 0.00 | 0.00 | 50 | 1016.9 |
| 20260509110804 | 74 | 165 | 1.0 | 3.0 | 0.00 | 0.00 | 0.00 | 52 | 1016.9 |
| 20260509110304 | 74 | 172 | 2.0 | 5.0 | 0.00 | 0.00 | 0.00 | 51 | 1016.9 |
| 20260509105306 | 74 | 181 | 2.0 | 7.0 | 0.00 | 0.00 | 0.00 | 54 | 1016.9 |
| 20260509103304 | 73 | 87 | 1.0 | 3.0 | 0.00 | 0.00 | 0.00 | 54 | 1017.2 |
| 20260509102804 | 73 | 189 | 2.0 | 5.0 | 0.00 | 0.00 | 0.00 | 52 | 1017.2 |
| 20260509102305 | 72 | 72 | 1.0 | 2.0 | 0.00 | 0.00 | 0.00 | 54 | 1017.2 |
| 20260509101303 | 72 | 34 | 1.0 | 5.0 | 0.00 | 0.00 | 0.00 | 56 | 1017.3 |
| 20260509100303 | 71 | 110 | 2.0 | 3.0 | 0.00 | 0.00 | 0.00 | 58 | 1017.6 |
| 20260509095804 | 72 | 101 | 1.0 | 5.0 | 0.00 | 0.00 | 0.00 | 53 | 1017.6 |
| 20260509095306 | 72 | 180 | 1.0 | 3.0 | 0.00 | 0.00 | 0.00 | 54 | 1017.6 |
| 20260509094803 | 72 | 16 | 1.0 | 3.0 | 0.00 | 0.00 | 0.00 | 55 | 1017.6 |
| 20260509094304 | 71 | 98 | 1.0 | 2.0 | 0.00 | 0.00 | 0.00 | 54 | 1017.6 |
| 20260509093803 | 69 | 100 | 1.0 | 3.0 | 0.00 | 0.00 | 0.00 | 56 | 1017.6 |
| 20260509093303 | 69 | 316 | 0.0 | 2.0 | 0.00 | 0.00 | 0.00 | 59 | 1017.6 |
| 20260509092804 | 69 | 305 | 0.0 | 2.0 | 0.00 | 0.00 | 0.00 | 56 | 1017.6 |
| 20260509092305 | 69 | 298 | 1.0 | 5.0 | 0.00 | 0.00 | 0.00 | 58 | 1017.6 |
| 20260509091803 | 69 | 115 | 2.0 | 5.0 | 0.00 | 0.00 | 0.00 | 56 | 1017.6 |
| 20260509091303 | 69 | 119 | 2.0 | 5.0 | 0.00 | 0.00 | 0.00 | 53 | 1017.6 |
| 20260509090803 | 69 | 259 | 1.0 | 5.0 | 0.00 | 0.00 | 0.00 | 54 | 1017.6 |
| 20260509090304 | 69 | 71 | 1.0 | 2.0 | 0.00 | 0.00 | 0.00 | 58 | 1017.6 |
| 20260509085803 | 68 | 60 | 1.0 | 5.0 | 0.00 | 0.00 | 0.00 | 54 | 1017.6 |
| 20260509085306 | 69 | 136 | 1.0 | 2.0 | 0.00 | 0.00 | 0.00 | 53 | 1017.6 |
| 20260509084804 | 69 | 101 | 0.0 | 2.0 | 0.00 | 0.00 | 0.00 | 55 | 1017.6 |
| 20260509084303 | 68 | 120 | 0.0 | 3.0 | 0.00 | 0.00 | 0.00 | 56 | 1017.6 |
| 20260509083804 | 67 | 119 | 0.0 | 3.0 | 0.00 | 0.00 | 0.00 | 62 | 1017.7 |
| 20260509082306 | 66 | 108 | 1.0 | 3.0 | 0.00 | 0.00 | 0.00 | 63 | 1017.8 |
| 20260509081803 | 65 | 91 | 1.0 | 5.0 | 0.00 | 0.00 | 0.00 | 67 | 1017.8 |
| 20260509081303 | 65 | 100 | 1.0 | 2.0 | 0.00 | 0.00 | 0.00 | 66 | 1018.0 |
| 20260509080804 | 64 | 101 | 0.0 | 5.0 | 0.00 | 0.00 | 0.00 | 68 | 1018.0 |
| 20260509080303 | 64 | 178 | 1.0 | 3.0 | 0.00 | 0.00 | 0.00 | 67 | 1018.0 |
| 20260509075804 | 64 | 179 | 1.0 | 3.0 | 0.00 | 0.00 | 0.00 | 67 | 1018.0 |
| 20260509075306 | 63 | 94 | 1.0 | 5.0 | 0.00 | 0.00 | 0.00 | 69 | 1018.0 |
| 20260509074803 | 63 | 27 | 1.0 | 2.0 | 0.00 | 0.00 | 0.00 | 68 | 1018.0 |
| 20260509074304 | 63 | 10 | 1.0 | 3.0 | 0.00 | 0.00 | 0.00 | 71 | 1017.9 |
| 20260509073804 | 62 | 17 | 1.0 | 3.0 | 0.00 | 0.00 | 0.00 | 72 | 1018.0 |
| 20260509073304 | 61 | 116 | 1.0 | 2.0 | 0.00 | 0.00 | 0.00 | 71 | 1018.0 |
| 20260509072803 | 61 | 116 | 1.0 | 2.0 | 0.00 | 0.00 | 0.00 | 73 | 1018.0 |
| 20260509072306 | 59 | 116 | 1.0 | 3.0 | 0.00 | 0.00 | 0.00 | 74 | 1018.0 |
| 20260509071304 | 59 | 86 | 0.0 | 1.0 | 0.00 | 0.00 | 0.00 | 77 | 1018.0 |
| 20260509070803 | 58 | 86 | 0.0 | 1.0 | 0.00 | 0.00 | 0.00 | 79 | 1018.0 |
| 20260509070303 | 57 | 86 | 1.0 | 3.0 | 0.00 | 0.00 | 0.00 | 80 | 1018.0 |
| 20260509065803 | 56 | 109 | 0.0 | 2.0 | 0.00 | 0.00 | 0.00 | 84 | 1018.0 |
| 20260509065306 | 55 | 109 | 1.0 | 2.0 | 0.00 | 0.00 | 0.00 | 82 | 1018.0 |
| 20260509064804 | 55 | 109 | 1.0 | 2.0 | 0.00 | 0.00 | 0.00 | 81 | 1018.0 |
| 20260509064304 | 54 | 92 | 1.0 | 3.0 | 0.00 | 0.00 | 0.00 | 86 | 1018.0 |
| 20260509063304 | 53 | 66 | 0.0 | 1.0 | 0.00 | 0.00 | 0.00 | 88 | 1018.0 |
| 20260509062804 | 52 | 66 | 0.0 | 2.0 | 0.00 | 0.00 | 0.00 | 88 | 1018.0 |
| 20260509062306 | 52 | 66 | 0.0 | 2.0 | 0.00 | 0.00 | 0.00 | 89 | 1018.0 |
| 20260509061804 | 52 | 66 | 1.0 | 2.0 | 0.00 | 0.00 | 0.00 | 89 | 1018.0 |
| 20260509060803 | 52 | 66 | 0.0 | 2.0 | 0.00 | 0.00 | 0.00 | 89 | 1018.0 |
| 20260509060303 | 51 | 66 | 0.0 | 1.0 | 0.00 | 0.00 | 0.00 | 90 | 1018.0 |
| 20260509055804 | 51 | 66 | 1.0 | 2.0 | 0.00 | 0.00 | 0.00 | 90 | 1018.0 |
| 20260509055306 | 51 | 66 | 0.0 | 1.0 | 0.00 | 0.00 | 0.00 | 92 | 1018.0 |
| 20260509054803 | 51 | 66 | 0.0 | 2.0 | 0.00 | 0.00 | 0.00 | 92 | 1018.0 |
| 20260509054304 | 50 | 66 | 0.0 | 1.0 | 0.00 | 0.00 | 0.00 | 92 | 1018.0 |
| 20260509053303 | 50 | 66 | 0.0 | 0.0 | 0.00 | 0.00 | 0.00 | 94 | 1018.0 |
| 20260509052804 | 49 | 66 | 0.0 | 0.0 | 0.00 | 0.00 | 0.00 | 95 | 1018.0 |
| 20260509051803 | 48 | 66 | 0.0 | 0.0 | 0.00 | 0.00 | 0.00 | 96 | 1018.0 |
| 20260509051304 | 48 | 66 | 0.0 | 1.0 | 0.00 | 0.00 | 0.00 | 95 | 1018.0 |
| 20260509050803 | 48 | 66 | 0.0 | 0.0 | 0.00 | 0.00 | 0.00 | 96 | 1017.9 |
| 20260509045803 | 47 | 66 | 0.0 | 0.0 | 0.00 | 0.00 | 0.00 | 98 | 1017.9 |
| 20260509045306 | 47 | 66 | 0.0 | 1.0 | 0.00 | 0.00 | 0.00 | 98 | 1017.8 |
| 20260509044804 | 46 | 66 | 0.0 | 1.0 | 0.00 | 0.00 | 0.00 | 100 | 1017.8 |
| 20260509044304 | 46 | 66 | 0.0 | 0.0 | 0.00 | 0.00 | 0.00 | 100 | 1017.8 |
| 20260509043804 | 45 | 66 | 0.0 | 0.0 | 0.00 | 0.00 | 0.00 | 100 | 1017.8 |
| 20260509043304 | 45 | 66 | 0.0 | 0.0 | 0.00 | 0.00 | 0.00 | 100 | 1017.8 |
| 20260509042803 | 45 | 66 | 0.0 | 0.0 | 0.00 | 0.00 | 0.00 | 100 | 1017.8 |
| 20260509042306 | 45 | 66 | 0.0 | 0.0 | 0.00 | 0.00 | 0.00 | 100 | 1017.8 |
| 20260509041804 | 45 | 66 | 0.0 | 0.0 | 0.00 | 0.00 | 0.00 | 100 | 1017.8 |
| 20260509041303 | 45 | 66 | 0.0 | 0.0 | 0.00 | 0.00 | 0.00 | 100 | 1017.8 |
| 20260509040804 | 45 | 66 | 0.0 | 0.0 | 0.00 | 0.00 | 0.00 | 100 | 1017.9 |
| 20260509035803 | 45 | 66 | 0.0 | 0.0 | 0.00 | 0.00 | 0.00 | 100 | 1017.7 |
| 20260509035306 | 44 | 66 | 0.0 | 0.0 | 0.00 | 0.00 | 0.00 | 100 | 1017.7 |
| 20260509034804 | 44 | 66 | 0.0 | 0.0 | 0.00 | 0.00 | 0.00 | 100 | 1017.7 |
| 20260509034304 | 44 | 66 | 0.0 | 0.0 | 0.00 | 0.00 | 0.00 | 100 | 1017.7 |
| 20260509033304 | 44 | 66 | 0.0 | 0.0 | 0.00 | 0.00 | 0.00 | 100 | 1017.7 |
| 20260509032804 | 43 | 66 | 0.0 | 0.0 | 0.00 | 0.00 | 0.00 | 100 | 1017.7 |
| 20260509032306 | 43 | 66 | 0.0 | 0.0 | 0.00 | 0.00 | 0.00 | 100 | 1017.7 |
| 20260509031803 | 43 | 66 | 0.0 | 0.0 | 0.00 | 0.00 | 0.00 | 100 | 1017.7 |
| 20260509031303 | 43 | 66 | 0.0 | 0.0 | 0.00 | 0.00 | 0.00 | 100 | 1017.7 |
| 20260509025804 | 43 | 66 | 0.0 | 0.0 | 0.00 | 0.00 | 0.00 | 99 | 1017.7 |
| 20260509025306 | 43 | 66 | 0.0 | 0.0 | 0.00 | 0.00 | 0.00 | 99 | 1017.7 |
| 20260509024804 | 43 | 66 | 0.0 | 0.0 | 0.00 | 0.00 | 0.00 | 99 | 1017.7 |
| 20260509024303 | 43 | 66 | 0.0 | 0.0 | 0.00 | 0.00 | 0.00 | 99 | 1017.6 |
| 20260509023303 | 43 | 66 | 0.0 | 0.0 | 0.00 | 0.00 | 0.00 | 100 | 1017.7 |
| 20260509022804 | 43 | 66 | 0.0 | 0.0 | 0.00 | 0.00 | 0.00 | 99 | 1017.7 |
| 20260509022306 | 44 | 66 | 0.0 | 0.0 | 0.00 | 0.00 | 0.00 | 99 | 1017.7 |
| 20260509021803 | 44 | 66 | 0.0 | 0.0 | 0.00 | 0.00 | 0.00 | 99 | 1017.7 |
| 20260509021303 | 44 | 66 | 0.0 | 0.0 | 0.00 | 0.00 | 0.00 | 99 | 1017.7 |
| 20260509020803 | 44 | 66 | 0.0 | 0.0 | 0.00 | 0.00 | 0.00 | 99 | 1017.7 |
| 20260509020304 | 44 | 66 | 0.0 | 0.0 | 0.00 | 0.00 | 0.00 | 99 | 1017.7 |
| 20260509015803 | 44 | 66 | 0.0 | 0.0 | 0.00 | 0.00 | 0.00 | 99 | 1017.7 |
| 20260509015319 | 44 | 66 | 0.0 | 0.0 | 0.00 | 0.00 | 0.00 | 98 | 1017.7 |
| 20260509014803 | 44 | 66 | 0.0 | 0.0 | 0.00 | 0.00 | 0.00 | 98 | 1017.7 |
| 20260509014304 | 44 | 66 | 0.0 | 0.0 | 0.00 | 0.00 | 0.00 | 98 | 1017.7 |
| 20260509013304 | 45 | 66 | 0.0 | 0.0 | 0.00 | 0.00 | 0.00 | 99 | 1017.7 |
| 20260509012804 | 45 | 66 | 0.0 | 0.0 | 0.00 | 0.00 | 0.00 | 98 | 1017.7 |
| 20260509012307 | 45 | 66 | 0.0 | 0.0 | 0.00 | 0.00 | 0.00 | 98 | 1017.7 |
| 20260509011803 | 45 | 66 | 0.0 | 0.0 | 0.00 | 0.00 | 0.00 | 98 | 1017.7 |
| 20260509010304 | 45 | 66 | 0.0 | 0.0 | 0.00 | 0.00 | 0.00 | 97 | 1017.6 |
| 20260509005803 | 45 | 66 | 0.0 | 0.0 | 0.00 | 0.00 | 0.00 | 97 | 1017.5 |
| 20260509005306 | 45 | 66 | 0.0 | 0.0 | 0.00 | 0.00 | 0.00 | 97 | 1017.5 |
| 20260509004803 | 45 | 66 | 0.0 | 0.0 | 0.00 | 0.00 | 0.00 | 97 | 1017.5 |
| 20260509003803 | 45 | 66 | 0.0 | 0.0 | 0.00 | 0.00 | 0.00 | 97 | 1017.5 |
| 20260509003303 | 45 | 66 | 0.0 | 0.0 | 0.00 | 0.00 | 0.00 | 97 | 1017.6 |
| 20260509002803 | 46 | 66 | 0.0 | 0.0 | 0.00 | 0.00 | 0.00 | 96 | 1017.6 |
| 20260509002306 | 46 | 66 | 0.0 | 0.0 | 0.00 | 0.00 | 0.00 | 96 | 1017.6 |
| 20260509001804 | 46 | 66 | 0.0 | 0.0 | 0.00 | 0.00 | 0.00 | 96 | 1017.6 |
| 20260509001304 | 46 | 66 | 0.0 | 0.0 | 0.00 | 0.00 | 0.00 | 96 | 1017.6 |
| 20260509000819 | 46 | 66 | 0.0 | 0.0 | 0.00 | 0.00 | 0.00 | 95 | 1017.7 |
| 20260509000303 | 47 | 66 | 0.0 | 0.0 | 0.00 | 0.00 | 0.00 | 95 | 1017.7 |
| 20260508235803 | 47 | 66 | 0.0 | 0.0 | 0.00 | 0.00 | 0.00 | 94 | 1017.7 |
| 20260508235306 | 47 | 66 | 0.0 | 0.0 | 0.00 | 0.00 | 0.00 | 94 | 1017.8 |
| 20260508234803 | 48 | 66 | 0.0 | 0.0 | 0.00 | 0.00 | 0.00 | 93 | 1017.7 |
| 20260508233304 | 48 | 66 | 0.0 | 0.0 | 0.00 | 0.00 | 0.00 | 93 | 1017.6 |
| 20260508232803 | 49 | 66 | 0.0 | 0.0 | 0.00 | 0.00 | 0.00 | 93 | 1017.6 |
| 20260508232306 | 49 | 66 | 0.0 | 1.0 | 0.00 | 0.00 | 0.00 | 93 | 1017.6 |
| 20260508231804 | 49 | 66 | 0.0 | 0.0 | 0.00 | 0.00 | 0.00 | 93 | 1017.6 |
| 20260508230804 | 49 | 66 | 0.0 | 1.0 | 0.00 | 0.01 | 0.00 | 93 | 1017.6 |
| 20260508230303 | 49 | 66 | 0.0 | 1.0 | 0.00 | 0.01 | 0.00 | 93 | 1017.6 |
| 20260508225803 | 49 | 66 | 0.0 | 1.0 | 0.00 | 0.01 | 0.00 | 93 | 1017.6 |
| 20260508225306 | 49 | 66 | 0.0 | 0.0 | 0.00 | 0.01 | 0.00 | 93 | 1017.6 |
| 20260508224804 | 49 | 66 | 0.0 | 0.0 | 0.00 | 0.01 | 0.00 | 93 | 1017.6 |
| 20260508224304 | 49 | 66 | 0.0 | 0.0 | 0.00 | 0.01 | 0.00 | 92 | 1017.6 |
| 20260508223803 | 49 | 66 | 0.0 | 0.0 | 0.00 | 0.01 | 0.00 | 92 | 1017.6 |
| 20260508222306 | 50 | 66 | 0.0 | 0.0 | 0.00 | 0.01 | 0.00 | 91 | 1017.5 |
| 20260508221803 | 50 | 66 | 0.0 | 0.0 | 0.00 | 0.01 | 0.00 | 91 | 1017.5 |
| 20260508221304 | 50 | 66 | 0.0 | 0.0 | 0.00 | 0.01 | 0.00 | 90 | 1017.5 |
| 20260508220303 | 50 | 66 | 0.0 | 0.0 | 0.00 | 0.01 | 0.00 | 90 | 1017.5 |
| 20260508215803 | 51 | 66 | 0.0 | 0.0 | 0.00 | 0.01 | 0.01 | 89 | 1017.5 |
| 20260508215306 | 51 | 66 | 0.0 | 0.0 | 0.00 | 0.01 | 0.01 | 89 | 1017.5 |
| 20260508214803 | 51 | 66 | 0.0 | 0.0 | 0.00 | 0.01 | 0.01 | 88 | 1017.5 |
| 20260508214304 | 51 | 66 | 0.0 | 1.0 | 0.00 | 0.01 | 0.01 | 88 | 1017.5 |
| 20260508213804 | 51 | 66 | 0.0 | 1.0 | 0.00 | 0.01 | 0.01 | 88 | 1017.4 |
| 20260508212803 | 52 | 66 | 0.0 | 1.0 | 0.00 | 0.01 | 0.01 | 88 | 1017.4 |
| 20260508212306 | 52 | 66 | 0.0 | 1.0 | 0.00 | 0.01 | 0.01 | 89 | 1017.4 |
| 20260508211804 | 52 | 66 | 0.0 | 0.0 | 0.00 | 0.01 | 0.01 | 88 | 1017.4 |
| 20260508211304 | 52 | 66 | 0.0 | 1.0 | 0.00 | 0.01 | 0.01 | 88 | 1017.4 |
| 20260508210303 | 52 | 66 | 0.0 | 1.0 | 0.00 | 0.01 | 0.01 | 88 | 1017.3 |
| 20260508205319 | 53 | 66 | 0.0 | 0.0 | 0.00 | 0.01 | 0.01 | 86 | 1017.1 |
| 20260508204803 | 53 | 66 | 0.0 | 0.0 | 0.00 | 0.01 | 0.01 | 86 | 1017.1 |
| 20260508204303 | 53 | 66 | 0.0 | 0.0 | 0.00 | 0.01 | 0.01 | 85 | 1017.1 |
| 20260508203804 | 54 | 66 | 0.0 | 1.0 | 0.00 | 0.01 | 0.01 | 84 | 1017.1 |
| 20260508203304 | 54 | 66 | 0.0 | 0.0 | 0.00 | 0.01 | 0.01 | 83 | 1017.1 |
| 20260508201303 | 56 | 66 | 0.0 | 1.0 | 0.00 | 0.01 | 0.01 | 79 | 1017.0 |
| 20260508200804 | 56 | 66 | 0.0 | 0.0 | 0.00 | 0.01 | 0.01 | 77 | 1017.0 |
| 20260508200304 | 56 | 66 | 0.0 | 1.0 | 0.00 | 0.01 | 0.01 | 77 | 1016.7 |
| 20260508195804 | 56 | 66 | 0.0 | 1.0 | 0.00 | 0.01 | 0.01 | 78 | 1016.7 |
| 20260508195306 | 56 | 66 | 0.0 | 0.0 | 0.00 | 0.01 | 0.01 | 76 | 1016.7 |
| 20260508194803 | 57 | 66 | 0.0 | 0.0 | 0.00 | 0.01 | 0.01 | 76 | 1016.7 |
| 20260508193804 | 58 | 66 | 0.0 | 1.0 | 0.00 | 0.01 | 0.01 | 74 | 1015.9 |
| 20260508193304 | 59 | 66 | 0.0 | 1.0 | 0.00 | 0.01 | 0.01 | 72 | 1015.9 |
| 20260508192804 | 59 | 66 | 0.0 | 0.0 | 0.00 | 0.01 | 0.01 | 71 | 1015.9 |
| 20260508192306 | 60 | 66 | 0.0 | 1.0 | 0.00 | 0.01 | 0.01 | 70 | 1015.9 |
| 20260508191803 | 60 | 66 | 0.0 | 1.0 | 0.00 | 0.01 | 0.01 | 69 | 1015.9 |
| 20260508191303 | 60 | 66 | 0.0 | 3.0 | 0.00 | 0.01 | 0.01 | 68 | 1015.9 |
| 20260508190804 | 61 | 15 | 1.0 | 5.0 | 0.00 | 0.01 | 0.01 | 68 | 1015.9 |
| 20260508190304 | 61 | 1 | 1.0 | 3.0 | 0.00 | 0.01 | 0.01 | 67 | 1015.9 |
| 20260508185306 | 61 | 9 | 1.0 | 3.0 | 0.00 | 0.01 | 0.01 | 67 | 1015.9 |
| 20260508184804 | 62 | 16 | 1.0 | 5.0 | 0.00 | 0.01 | 0.01 | 67 | 1015.9 |
| 20260508184304 | 62 | 24 | 1.0 | 5.0 | 0.00 | 0.01 | 0.01 | 67 | 1015.5 |
| 20260508183303 | 62 | 335 | 1.0 | 5.0 | 0.00 | 0.01 | 0.01 | 66 | 1015.5 |
| 20260508182804 | 63 | 75 | 1.0 | 3.0 | 0.00 | 0.01 | 0.01 | 67 | 1015.5 |
| 20260508182306 | 63 | 65 | 1.0 | 5.0 | 0.00 | 0.01 | 0.01 | 66 | 1015.5 |
| 20260508181304 | 63 | 29 | 0.0 | 2.0 | 0.00 | 0.01 | 0.01 | 66 | 1015.3 |
| 20260508180304 | 64 | 77 | 1.0 | 5.0 | 0.00 | 0.01 | 0.01 | 64 | 1015.3 |
| 20260508175306 | 64 | 58 | 2.0 | 8.0 | 0.00 | 0.01 | 0.01 | 64 | 1015.3 |
| 20260508174804 | 65 | 120 | 1.0 | 5.0 | 0.00 | 0.01 | 0.01 | 63 | 1015.1 |
| 20260508174303 | 65 | 13 | 1.0 | 5.0 | 0.00 | 0.01 | 0.01 | 62 | 1015.1 |
| 20260508173803 | 65 | 53 | 2.0 | 5.0 | 0.00 | 0.01 | 0.01 | 62 | 1015.1 |
| 20260508173303 | 66 | 21 | 2.0 | 6.0 | 0.00 | 0.01 | 0.01 | 61 | 1015.1 |
| 20260508172307 | 66 | 21 | 2.0 | 7.0 | 0.00 | 0.01 | 0.01 | 60 | 1015.1 |
| 20260508171804 | 67 | 74 | 2.0 | 6.0 | 0.00 | 0.01 | 0.01 | 59 | 1015.1 |
| 20260508171304 | 67 | 26 | 2.0 | 5.0 | 0.00 | 0.01 | 0.01 | 59 | 1015.0 |
| 20260508165803 | 69 | 89 | 2.0 | 5.0 | 0.00 | 0.01 | 0.01 | 57 | 1014.7 |
| 20260508165306 | 69 | 101 | 2.0 | 5.0 | 0.00 | 0.01 | 0.01 | 57 | 1014.7 |
| 20260508164803 | 69 | 59 | 3.0 | 6.0 | 0.00 | 0.01 | 0.01 | 56 | 1014.7 |
| 20260508164303 | 70 | 75 | 2.0 | 5.0 | 0.00 | 0.01 | 0.01 | 55 | 1014.7 |
| 20260508163804 | 70 | 80 | 2.0 | 5.0 | 0.00 | 0.01 | 0.01 | 54 | 1014.7 |
| 20260508163304 | 70 | 87 | 1.0 | 5.0 | 0.00 | 0.01 | 0.01 | 57 | 1014.7 |
| 20260508162306 | 70 | 76 | 3.0 | 5.0 | 0.00 | 0.01 | 0.01 | 54 | 1014.7 |
| 20260508161804 | 70 | 85 | 2.0 | 5.0 | 0.00 | 0.01 | 0.01 | 54 | 1014.7 |
| 20260508161303 | 70 | 2 | 3.0 | 8.0 | 0.00 | 0.01 | 0.01 | 54 | 1014.8 |
| 20260508155804 | 71 | 216 | 2.0 | 5.0 | 0.00 | 0.01 | 0.01 | 52 | 1014.8 |
| 20260508155306 | 71 | 30 | 1.0 | 5.0 | 0.00 | 0.01 | 0.01 | 50 | 1014.8 |
| 20260508154804 | 70 | 114 | 1.0 | 2.0 | 0.00 | 0.01 | 0.01 | 52 | 1014.8 |
| 20260508154304 | 69 | 67 | 2.0 | 5.0 | 0.00 | 0.01 | 0.01 | 54 | 1014.8 |
| 20260508153804 | 68 | 52 | 1.0 | 5.0 | 0.00 | 0.01 | 0.01 | 55 | 1014.8 |
| 20260508153304 | 68 | 85 | 2.0 | 5.0 | 0.00 | 0.01 | 0.01 | 56 | 1015.0 |
| 20260508152306 | 71 | 75 | 2.0 | 8.0 | 0.00 | 0.01 | 0.01 | 53 | 1015.0 |
| 20260508151804 | 71 | 112 | 1.0 | 3.0 | 0.00 | 0.01 | 0.01 | 51 | 1015.0 |
| 20260508151304 | 72 | 78 | 1.0 | 3.0 | 0.00 | 0.01 | 0.01 | 49 | 1015.0 |
| 20260508150804 | 72 | 66 | 1.0 | 3.0 | 0.00 | 0.01 | 0.01 | 51 | 1015.0 |
| 20260508150304 | 72 | 86 | 2.0 | 5.0 | 0.00 | 0.01 | 0.01 | 48 | 1015.0 |
| 20260508145804 | 73 | 134 | 1.0 | 5.0 | 0.00 | 0.01 | 0.01 | 49 | 1015.0 |
| 20260508145306 | 72 | 8 | 2.0 | 5.0 | 0.00 | 0.01 | 0.01 | 48 | 1015.1 |
| 20260508144803 | 72 | 54 | 2.0 | 5.0 | 0.00 | 0.01 | 0.01 | 49 | 1015.2 |
| 20260508144304 | 72 | 78 | 2.0 | 5.0 | 0.00 | 0.01 | 0.01 | 51 | 1015.2 |
| 20260508143804 | 73 | 81 | 2.0 | 5.0 | 0.00 | 0.01 | 0.01 | 48 | 1015.3 |
| 20260508143303 | 73 | 89 | 2.0 | 7.0 | 0.00 | 0.01 | 0.01 | 49 | 1015.3 |
| 20260508142804 | 73 | 31 | 2.0 | 6.0 | 0.00 | 0.01 | 0.01 | 47 | 1015.3 |
| 20260508142306 | 73 | 288 | 2.0 | 6.0 | 0.00 | 0.01 | 0.01 | 49 | 1015.3 |
| 20260508141804 | 72 | 69 | 1.0 | 3.0 | 0.00 | 0.01 | 0.01 | 48 | 1015.5 |
| 20260508141303 | 71 | 186 | 0.0 | 1.0 | 0.00 | 0.01 | 0.01 | 54 | 1015.5 |
| 20260508140804 | 71 | 180 | 1.0 | 5.0 | 0.00 | 0.01 | 0.01 | 50 | 1015.5 |
| 20260508140304 | 72 | 148 | 1.0 | 6.0 | 0.00 | 0.01 | 0.01 | 54 | 1015.6 |
| 20260508135803 | 71 | 140 | 2.0 | 5.0 | 0.00 | 0.01 | 0.01 | 50 | 1015.6 |
| 20260508135306 | 72 | 0 | 1.0 | 3.0 | 0.00 | 0.01 | 0.01 | 48 | 1015.6 |
| 20260508134803 | 72 | 93 | 1.0 | 5.0 | 0.00 | 0.01 | 0.01 | 54 | 1015.9 |
| 20260508134304 | 71 | 113 | 1.0 | 3.0 | 0.00 | 0.01 | 0.01 | 54 | 1015.9 |
| 20260508133304 | 71 | 58 | 1.0 | 3.0 | 0.00 | 0.01 | 0.01 | 51 | 1015.9 |
| 20260508132804 | 70 | 60 | 1.0 | 3.0 | 0.00 | 0.01 | 0.01 | 53 | 1015.9 |
| 20260508132306 | 69 | 53 | 1.0 | 3.0 | 0.00 | 0.01 | 0.01 | 56 | 1015.9 |
| 20260508131805 | 69 | 78 | 1.0 | 3.0 | 0.00 | 0.01 | 0.01 | 54 | 1015.9 |
| 20260508131304 | 68 | 103 | 0.0 | 1.0 | 0.00 | 0.01 | 0.01 | 54 | 1016.0 |
| 20260508130304 | 67 | 103 | 0.0 | 1.0 | 0.00 | 0.01 | 0.01 | 58 | 1016.1 |